User: anonymous   Login
Location: Gerlach
(40.6516°N, 119.3568°W)
Time: 20:34:52
(UTC-08:00)
Language:

EO-88 - Orbit

View from above orbital plane
View from above orbital plane
View from above satellite
View from above satellite

Ground track
Ground track

The orbit data is extracted from the following two-line orbital elements,

1 42017U 17008BX  23027.68589267  .00050475  00000-0  10187-2 0  9995
2 42017  97.2385  96.5866 0003573 148.0374 212.1093 15.46355438331565
Epoch (UTC): 27 January 2023 16:27:41
Eccentricity: 0.0003573
inclination: 97.2385°
perigee height: 425 km
apogee height: 430 km
right ascension of ascending node: 96.5866°
argument of perigee: 148.0374°
revolutions per day: 15.46355438
mean anomaly at epoch: 212.1093°
orbit number at epoch: 33156

The dashed part of the orbit path shows where the satellite is in the earth's shadow,  

DLR